Location: Dittelbrunn
(50.0738°N, 10.2196°E)
Time: 21:23:35
(UTC+00:00)

Meteor 1-21 - Pass Details

Date: 18 September 2020
Orbit: 845 x 887 km, 81.2° (Epoch: 30 October)

Event Time Altitude Azimuth Distance (km) Brightness Sun altitude
Rises 18:12:17 0° 347° (NNW) 3,434 7.7 -8.3°
Reaches altitude 10° 18:14:43 10° 347° (NNW) 2,490 7.0 -8.7°
Maximum altitude 18:20:22 86° 261° (W) 856 4.3 -9.6°
Drops below altitude 10° 18:25:58 10° 172° (S) 2,462 6.4 -10.4°
Sets 18:28:22 0° 172° (S) 3,394 7.1 -10.8°
